Other Public Products
Issued by NWS Charleston, SC

Current Version | Previous Version | Graphics & Text | Print | Product List | Glossary On
Versions: 1 2 3 4 5 6 7 8 9 10 11 12 13 14 15 16 17 18 19 20 21 22 23 24 25 26 27 28 29 30 31 32 33 34 35 36 37 38 39 40 41 42 43 44 45 46 47 48 49 50
737 FPUS82 KCHS 160127 OPUCHS TEST...KCHS/KSAV Gateway Observations...TEST National Weather Service Charleston SC 800 PM EST FRI DEC 15 2017 NOTE: "fair" indicates few or no clouds below 12,000 feet with no significant weather and/or obstructions to visibility. SCZ050-WAZ558-NCZ071-TXZ119-213-PAZ071-DCZ001-FLZ074-172-MI076- NYZ176-178-MAZ016-IL014-TNZ027-NJZ106-GAZ044-MD014-160200- ...Gateway Observations for Charleston International... CITY SKY/WX TMP DP RH WIND PRES REMARKS Chas Airport CLOUDY 54 41 61 W9 30.05R Seattle FOG 42 41 96 S6 30.21R VSB 1/2 Charlotte PTCLDY 37 25 61 N5 30.06R WCI 33 Dallas DFW PTCLDY 48 22 35 SW6 30.21S Dallas Love CLEAR 51 24 34 S3 30.23R Philladelphia CLOUDY 26 21 81 W8 29.96R WCI 18 Wash National PTCLDY 28 24 85 SW5 30.00R WCI 23 Baltimore PTCLDY 23 22 96 SW3 29.98R Miami PTCLDY 70 59 68 CALM 30.14R Detroit CLOUDY 28 16 60 SW13 29.90R WCI 17 Newark FLURRIES 24 20 84 W6 29.92F WCI 17 Laguardia LGT SNOW 26 22 84 W7 29.91S FOG WCI 18 J F K LGT SNOW 26 23 88 W8 29.92F FOG WCI 18 Boston Logan CLOUDY 26 12 55 SW8 29.88F WCI 18 Ft. Lauderdale PTCLDY 70 57 63 CALM 30.13R Chicago O`Hare CLOUDY 34 22 61 SW7 29.90S WCI 28 Chicago Midway FLURRIES 35 22 58 SW9 29.92S WCI 28 Houston Bush CLOUDY 49 39 68 S5 30.27R Houston Hobby CLOUDY 51 37 58 CALM 30.27R Nashville PTCLDY 34 23 64 S3 30.19R Atlanta CLOUDY 35 25 66 NW12G21 30.18R WCI 27 $$ GAZ044-118-TXZ119-213-NCZ071-DCZ001-MDZ014-506-PAZ021-071-NJZ106- NYZ176-178-MAZ106-OHZ011-021-055-MIZ076-KYZ091-ILZ014-INZ047- MNZ060-ONZ431-160200- ...Gateway Observations for Savannah International... CITY SKY/WX TMP DP RH WIND PRES REMARKS Savannah Arpt MOCLDY 54 39 57 W10 30.10R Atlanta CLOUDY 35 25 66 NW12G21 30.18R WCI 27 Charlotte PTCLDY 37 25 61 N5 30.06R WCI 33 Dallas DFW PTCLDY 48 22 35 SW6 30.21S Houston Bush CLOUDY 49 39 68 S5 30.27R Wash National PTCLDY 28 24 85 SW5 30.00R WCI 23 Wash Dulles PTCLDY 21 20 96 SW6 29.99R WCI 13 Baltimore PTCLDY 23 22 96 SW3 29.98R Philadelphia CLOUDY 26 21 81 W8 29.96R WCI 18 Newark FLURRIES 24 20 84 W6 29.92F WCI 17 Laguardia LGT SNOW 26 22 84 W7 29.91S FOG WCI 18 J F K LGT SNOW 26 23 88 W8 29.92F FOG WCI 18 Boston CLOUDY 26 12 55 SW8 29.88F WCI 18 Pittsburg FLURRIES 28 20 71 W14G25 29.93R WCI 17 Akron FLURRIES 26 17 68 W16G25 29.93R WCI 14 Cleveland CLOUDY 27 17 66 W17 29.95R WCI 14 Cincinnati CLOUDY 31 22 69 SW6 30.08R WCI 25 Columbus CLOUDY 29 20 69 W12 30.05R WCI 19 Detroit CLOUDY 28 16 60 SW13 29.90R WCI 17 Chicago O`Hare CLOUDY 34 22 61 SW7 29.90S WCI 28 Minneapolis LGT SNOW 27 24 89 SE7 29.75F FOG WCI 19 Indianapolis CLOUDY 30 20 66 SW8 30.05R WCI 22 Toronto Canada CLOUDY 25 19 80 W20G26 29.72R WCI 11 $$

USA.gov is the U.S. government's official web portal to all federal, state and local government web resources and services.